Lewisburg, WV

8:43 AM EST on January 16, 2018 (GMT -0500)
Greenbrier Valley

Weather History for KLWB - December, 2014

Change the Weather History Date:

Friday, December 12, 2014

  Actual Average Record
Temperature  
Mean Temperature 36 °F -  
Max Temperature 44 °F 46 °F 70 °F (2015)
Min Temperature 28 °F 25 °F -10 °F (1988)
Degree Days  
Heating Degree Days 29    
Month to date heating degree days 301  
Moisture  
Dew Point 18 °F    
Average Humidity 51    
Maximum Humidity 75    
Minimum Humidity 27    
Precipitation  
Precipitation 0.00 in - - ()
Month to date precipitation 0.92  
Year to date precipitation 25.32  
Snow  
Snow 0.00 in - - ()
Month to date snowfall T  
Snow Depth 0.00 in    
Sea Level Pressure  
Sea Level Pressure 30.17 in    
Wind  
Wind Speed 8 mph (West)    
Max Wind Speed 13 mph    
Max Gust Speed 21 mph    
Visibility 10 miles    
Events      
Averages and records for this station are not official NWS values.
T = Trace of Precipitation, MM = Missing Value Source: NWS Daily Summary

Daily Weather History Graph

Daily Weather History Graph

Search for Another Location

Airport or City:

Trip Planner

Search our weather history database for the weather conditions in past years. The results will help you decide how hot, cold, wet, or windy it might be!

Date:

Astronomy

Dec. 12, 2014 Rise Set
Actual Time 7:27 AM EST 5:02 PM EST
Civil Twilight 6:58 AM EST 5:32 PM EST
Nautical Twilight 6:25 AM EST 6:05 PM EST
Astronomical Twilight 5:53 AM EST 6:37 PM EST
Moon 11:02 PM EST (12/12) 11:25 AM EST (12/12)
Length of Visible Light 10h 33m
Length of Day
9h 34m
Waning Gibbous, 67% of the Moon is Illuminated
Dec 12
Waning Gibbous
Dec 14
Last Quarter
Dec 21
New
Dec 28
First Quarter
Jan 4
Full

Hourly Weather History & Observations

Time (EST) Temp. Windchill Dew Point Humidity Pressure Visibility Wind Dir Wind Speed Gust Speed Precip Events Conditions
12:15 AM 30.7 °F 21.4 °F 18.3 °F 60% 30.12 in 10.0 mi West 11.5 mph 18.4 mph N/A   Clear
12:35 AM 30.6 °F 21.2 °F 18.5 °F 61% 30.11 in 10.0 mi West 11.5 mph 19.6 mph N/A   Clear
12:55 AM 30.6 °F 21.8 °F 18.9 °F 62% 30.11 in 10.0 mi West 10.4 mph 19.6 mph N/A   Clear
1:15 AM 30.2 °F 21.3 °F 19.2 °F 64% 30.11 in 10.0 mi WNW 10.4 mph 20.7 mph N/A   Clear
1:35 AM 30.2 °F 23.4 °F 19.4 °F 64% 30.11 in 10.0 mi West 6.9 mph 16.1 mph N/A   Clear
1:55 AM 30.0 °F 22.4 °F 19.4 °F 65% 30.12 in 10.0 mi West 8.1 mph - N/A   Clear
2:15 AM 29.8 °F 22.2 °F 19.8 °F 66% 30.12 in 10.0 mi West 8.1 mph - N/A   Clear
2:35 AM 29.7 °F 22.0 °F 19.9 °F 67% 30.12 in 10.0 mi West 8.1 mph - N/A   Clear
2:55 AM 29.8 °F 21.5 °F 20.3 °F 68% 30.12 in 10.0 mi West 9.2 mph 17.3 mph N/A   Clear
3:15 AM 29.7 °F 22.0 °F 20.3 °F 68% 30.12 in 10.0 mi West 8.1 mph - N/A   Clear
3:35 AM 29.3 °F 23.2 °F 20.7 °F 70% 30.12 in 10.0 mi West 5.8 mph - N/A   Clear
3:55 AM 29.3 °F 22.3 °F 20.8 °F 71% 30.13 in 10.0 mi WNW 6.9 mph - N/A   Clear
4:15 AM 29.3 °F 24.3 °F 21.0 °F 71% 30.14 in 10.0 mi WNW 4.6 mph - N/A   Clear
4:35 AM 29.1 °F 23.0 °F 21.0 °F 72% 30.14 in 10.0 mi West 5.8 mph - N/A   Clear
4:55 AM 29.1 °F 22.1 °F 21.2 °F 72% 30.14 in 10.0 mi West 6.9 mph - N/A   Clear
5:15 AM 29.3 °F 21.5 °F 21.6 °F 73% 30.15 in 10.0 mi West 8.1 mph - N/A   Clear
5:35 AM 29.3 °F 21.5 °F 21.6 °F 73% 30.16 in 10.0 mi West 8.1 mph - N/A   Clear
5:55 AM 29.1 °F 20.6 °F 21.7 °F 74% 30.17 in 10.0 mi West 9.2 mph - N/A   Clear
6:15 AM 29.1 °F 20.6 °F 21.7 °F 74% 30.17 in 10.0 mi West 9.2 mph - N/A   Clear
6:35 AM 28.9 °F 20.4 °F 21.7 °F 74% 30.17 in 10.0 mi West 9.2 mph - N/A   Clear
6:55 AM 28.9 °F 19.2 °F 21.6 °F 74% 30.18 in 10.0 mi West 11.5 mph - N/A   Clear
7:15 AM 28.6 °F 18.2 °F 21.2 °F 74% 30.19 in 10.0 mi West 12.7 mph - N/A   Clear
7:35 AM 28.4 °F 19.7 °F 21.2 °F 74% 30.19 in 10.0 mi West 9.2 mph - N/A   Clear
7:55 AM 28.6 °F 20.7 °F 21.0 °F 73% 30.19 in 10.0 mi WSW 8.1 mph - N/A   Clear
8:15 AM 28.8 °F 20.9 °F 21.0 °F 73% 30.20 in 10.0 mi WSW 8.1 mph - N/A   Clear
8:35 AM 29.1 °F 20.6 °F 20.7 °F 71% 30.20 in 10.0 mi WSW 9.2 mph - N/A   Clear
8:55 AM 29.7 °F 22.8 °F 20.3 °F 68% 30.21 in 10.0 mi WSW 6.9 mph - N/A   Clear
9:15 AM 30.2 °F 23.4 °F 20.7 °F 68% 30.21 in 10.0 mi SW 6.9 mph - N/A   Clear
9:35 AM 30.6 °F 23.1 °F 20.7 °F 67% 30.22 in 10.0 mi SW 8.1 mph - N/A   Clear
9:55 AM 31.1 °F 23.1 °F 20.7 °F 65% 30.22 in 10.0 mi SW 9.2 mph - N/A   Clear
10:15 AM 31.8 °F 23.9 °F 20.5 °F 63% 30.22 in 10.0 mi SW 9.2 mph - N/A   Clear
10:35 AM 32.0 °F 23.6 °F 20.7 °F 63% 30.21 in 10.0 mi SW 10.4 mph - N/A   Clear
10:55 AM 33.1 °F 24.9 °F 20.8 °F 61% 30.21 in 10.0 mi SW 10.4 mph - N/A   Clear
11:15 AM 34.5 °F 26.2 °F 20.8 °F 57% 30.20 in 10.0 mi SW 11.5 mph - N/A   Clear
11:35 AM 35.8 °F 28.8 °F 20.1 °F 53% 30.19 in 10.0 mi SW 9.2 mph - N/A   Clear
11:55 AM 37.4 °F 31.4 °F 17.8 °F 45% 30.19 in 10.0 mi West 8.1 mph - N/A   Clear
12:15 PM 38.8 °F 32.1 °F 13.8 °F 36% 30.18 in 10.0 mi West 10.4 mph 20.7 mph N/A   Clear
12:35 PM 40.5 °F 33.2 °F 13.3 °F 33% 30.17 in 10.0 mi West 12.7 mph - N/A   Clear
12:55 PM 40.5 °F 33.6 °F 13.3 °F 33% 30.17 in 10.0 mi West 11.5 mph 19.6 mph N/A   Clear
1:15 PM 41.2 °F 34.5 °F 12.7 °F 31% 30.17 in 10.0 mi West 11.5 mph 19.6 mph N/A   Clear
1:35 PM 42.1 °F 35.2 °F 12.9 °F 31% 30.16 in 10.0 mi West 12.7 mph - N/A   Clear
1:55 PM 42.8 °F 37.0 °F 12.6 °F 29% 30.15 in 10.0 mi WNW 10.4 mph 18.4 mph N/A   Clear
2:15 PM 43.2 °F 37.4 °F 12.9 °F 29% 30.15 in 10.0 mi WNW 10.4 mph 19.6 mph N/A   Clear
2:35 PM 43.5 °F 37.9 °F 12.2 °F 28% 30.15 in 10.0 mi West 10.4 mph 17.3 mph N/A   Clear
2:55 PM 44.1 °F 39.5 °F 12.2 °F 28% 30.15 in 10.0 mi WNW 8.1 mph - N/A   Clear
3:15 PM 44.2 °F 39.7 °F 12.0 °F 27% 30.15 in 10.0 mi WNW 8.1 mph - N/A   Clear
3:35 PM 44.1 °F 39.0 °F 13.1 °F 29% 30.15 in 10.0 mi WNW 9.2 mph 16.1 mph N/A   Clear
3:55 PM 43.7 °F 38.1 °F 13.3 °F 29% 30.14 in 10.0 mi NW 10.4 mph 16.1 mph N/A   Clear
4:15 PM 43.2 °F 39.7 °F 14.0 °F 31% 30.14 in 10.0 mi West 5.8 mph - N/A   Clear
4:35 PM 42.8 °F 39.3 °F 13.6 °F 31% 30.15 in 10.0 mi WNW 5.8 mph - N/A   Clear
4:55 PM 41.7 °F 38.0 °F 13.8 °F 32% 30.16 in 10.0 mi WNW 5.8 mph - N/A   Clear
5:15 PM 41.0 °F 37.1 °F 14.0 °F 33% 30.16 in 10.0 mi West 5.8 mph - N/A   Clear
5:35 PM 40.1 °F 38.0 °F 14.7 °F 36% 30.16 in 10.0 mi West 3.5 mph - N/A   Clear
5:55 PM 39.6 °F 37.4 °F 14.9 °F 37% 30.17 in 10.0 mi WSW 3.5 mph - N/A   Clear
6:15 PM 38.1 °F 34.6 °F 15.8 °F 40% 30.17 in 10.0 mi West 4.6 mph - N/A   Clear
6:35 PM 38.7 °F 35.2 °F 15.1 °F 38% 30.18 in 10.0 mi WSW 4.6 mph - N/A   Clear
6:55 PM 37.8 °F 35.3 °F 15.8 °F 41% 30.18 in 10.0 mi WSW 3.5 mph - N/A   Clear
7:15 PM 37.6 °F 34.0 °F 16.3 °F 42% 30.18 in 10.0 mi West 4.6 mph - N/A   Clear
7:35 PM 37.6 °F 32.3 °F 16.9 °F 43% 30.18 in 10.0 mi West 6.9 mph - N/A   Clear
7:55 PM 37.4 °F 30.8 °F 17.4 °F 44% 30.18 in 10.0 mi West 9.2 mph 17.3 mph N/A   Clear
8:15 PM 37.4 °F 31.4 °F 17.6 °F 45% 30.19 in 10.0 mi WSW 8.1 mph - N/A   Clear
8:35 PM 37.4 °F 32.1 °F 17.6 °F 45% 30.19 in 10.0 mi WSW 6.9 mph - N/A   Clear
8:55 PM 37.0 °F 31.6 °F 18.3 °F 47% 30.19 in 10.0 mi West 6.9 mph - N/A   Clear
9:15 PM 37.2 °F 30.6 °F 18.5 °F 47% 30.19 in 10.0 mi West 9.2 mph - N/A   Clear
9:35 PM 37.0 °F 32.4 °F 18.7 °F 48% 30.19 in 10.0 mi West 5.8 mph - N/A   Clear
9:55 PM 36.5 °F 32.7 °F 19.0 °F 49% 30.20 in 10.0 mi West 4.6 mph - N/A   Clear
10:15 PM 36.5 °F 30.3 °F 19.4 °F 50% 30.19 in 10.0 mi West 8.1 mph - N/A   Clear
10:35 PM 36.1 °F 30.6 °F 19.4 °F 51% 30.19 in 10.0 mi WSW 6.9 mph - N/A   Clear
10:55 PM 36.0 °F 29.0 °F 19.8 °F 52% 30.19 in 10.0 mi WSW 9.2 mph - N/A   Clear
11:15 PM 36.0 °F 29.6 °F 19.6 °F 51% 30.19 in 10.0 mi West 8.1 mph - N/A   Clear
11:35 PM 35.6 °F 29.9 °F 19.8 °F 53% 30.18 in 10.0 mi WSW 6.9 mph - N/A   Clear
11:55 PM 35.4 °F 29.0 °F 19.9 °F 53% 30.19 in 10.0 mi WSW 8.1 mph - N/A   Clear